Probability
6 55 100 100 100 100 100 100 100 100 100 100 100 100 100 97 97 100 100 100 100 100 100 100 100 100 100 100 100 100 100 100 100 100 100 100 100 100 100 100 97 97 94
19 81 100 100 100 100 100 100 100 100 97 97 97 97 97 94 97 100 100 100 100 100 100 100 97 100 100 100 100 100 100 100 100 100 100 100 100 100 100 100 97 100 100
61 94 100 100 100 100 100 100 100 100 97 97 94 97 97 97 97 97 100 100 100 100 97 97 97 97 100 100 100 100 100 100 100 97 100 97 97 100 100 100 97 97 100
90 100 100 100 100 100 100 100 100 100 97 97 97 97 97 97 97 97 100 100 97 97 97 97 97 97 100 97 100 97 100 100 97 97 87 94 94 100 100 100 100 97 100
94 100 100 100 100 100 100 100 100 100 97 97 97 97 97 97 100 97 100 97 97 97 97 97 97 97 94 97 97 97 97 97 97 94 71 77 81 94 97 100 100 97 100
90 97 97 100 100 100 100 100 100 100 100 97 97 97 97 94 97 94 94 94 94 97 97 97 90 90 90 94 97 97 94 94 84 52 58 61 81 94 94 97 97 94 90
81 94 94 100 100 100 100 100 100 100 100 100 97 97 97 97 90 90 94 94 94 94 87 84 84 90 90 87 87 90 87 90 45 55 52 58 68 90 90 94 94 94 87
55 55 74 90 97 100 100 100 100 100 100 100 100 97 97 97 87 87 90 90 90 94 90 84 84 87 84 87 84 84 81 84 58 58 55 48 87 90 87 90 87 90 87
26 29 39 52 55 87 90 97 100 100 100 100 100 100 100 97 97 94 94 90 90 87 90 87 81 81 77 81 77 77 74 84 23 39 55 55 87 90 87 87 87 87 87
10 13 10 19 23 29 42 81 94 100 100 100 100 100 100 100 97 94 94 94 90 90 87 81 77 81 74 71 74 77 74 61 13 32 45 52 90 87 87 87 87 87 90
0 0 0 6 6 13 23 32 55 84 90 94 94 97 100 97 84 87 90 97 94 94 90 90 90 81 77 77 81 77 74 3 3 13 29 74 90 87 90 87 90 90 94
0 3 3 0 0 0 0 16 16 23 35 48 61 74 81 74 77 84 84 94 97 94 94 97 97 94 65 26 10 29 3 0 0 6 13 90 90 94 87 87 90 87 94
0 0 0 0 0 0 0 0 3 3 6 13 23 32 42 52 48 71 52 61 77 87 90 90 90 58 26 0 0 0 0 0 0 0 6 77 90 90 87 90 90 90 87
0 0 0 0 0 0 0 0 0 3 3 3 6 6 10 26 26 32 29 26 26 39 48 39 39 23 3 0 0 0 0 0 0 0 0 61 90 90 87 87 84 87 84
0 0 0 0 0 0 0 0 0 0 0 6 6 3 6 10 16 13 10 10 10 13 16 26 16 10 3 0 0 0 0 0 0 0 0 23 94 97 87 84 87 87 87
0 0 0 0 0 0 0 0 0 0 0 0 0 3 6 3 6 6 10 3 6 3 10 10 6 3 6 3 0 0 0 0 0 0 0 3 81 100 94 87 87 87 87
0 0 0 0 0 0 0 0 0 0 0 0 0 0 0 3 6 6 0 3 3 6 3 3 3 3 3 0 0 0 0 0 0 0 0 0 16 77 100 90 90 90 90
0 0 0 0 0 0 0 0 0 0 0 0 0 0 0 0 3 3 0 0 3 3 3 3 3 3 0 0 0 0 0 0 0 0 0 0 3 23 58 94 94 94 94
0 0 0 0 0 0 0 0 0 0 0 0 0 0 0 0 0 0 0 0 3 0 0 3 3 3 0 0 0 0 0 0 0 0 0 0 0 0 6 35 90 90 94
0 0 0 0 0 0 0 0 0 0 0 0 0 0 0 0 0 0 0 0 0 0 0 0 3 0 0 0 0 0 0 0 0 0 0 0 0 0 0 6 39 55 87
0 0 0 0 0 0 0 0 0 0 0 0 0 0 0 0 0 0 0 0 0 0 0 0 0 0 0 0 0 0 0 0 0 0 0 0 0 0 0 0 10 16 23
0 0 0 0 0 0 0 0 0 0 0 0 0 0 0 0 0 0 0 0 0 0 0 0 0 0 0 0 0 0 0 0 0 0 0 0 0 0 0 0 0 3 3
0 0 0 0 0 0 0 0 0 0 0 0 0 0 0 0 0 0 0 0 0 0 0 0 0 0 0 0 0 0 0 0 0 0 0 0 0 0 0 0 0 0 0
0 0 0 0 0 0 0 0 0 0 0 0 0 0 0 0 0 0 0 0 0 0 0 0 0 0 0 0 0 0 0 0 0 0 0 0 0 0 0 0 0 0 0
0 0 0 0 0 0 0 0 0 0 0 0 0 0 0 0 0 0 0 0 0 0 0 0 0 0 0 0 0 0 0 0 0 0 0 0 0 0 0 0 0 0 0
0 0 0 0 0 0 0 0 0 0 0 0 0 0 0 0 0 0 0 0 0 3 3 0 0 0 0 0 0 0 0 0 0 0 0 0 0 0 0 0 0 0 0
Height
5906 5906 5906 5905 5905 5904 5903 5902 5902 5901 5901 5901 5901 5902 5902 5902 5903 5903 5904 5904 5905 5905 5906 5906 5907 5908 5908 5909 5909 5910 5911 5911 5911 5911 5911 5912 5912 5911 5911 5911 5910 5910 5909
5906 5906 5905 5905 5904 5904 5903 5902 5902 5901 5901 5901 5901 5902 5902 5902 5902 5902 5903 5903 5904 5904 5905 5905 5906 5906 5907 5907 5908 5908 5909 5909 5909 5910 5910 5910 5910 5910 5910 5910 5909 5909 5908
5905 5905 5905 5904 5904 5903 5902 5902 5902 5901 5901 5901 5901 5901 5902 5902 5902 5902 5902 5902 5903 5903 5903 5904 5904 5905 5905 5905 5906 5906 5907 5907 5908 5908 5908 5908 5909 5909 5909 5909 5909 5908 5908
5904 5904 5904 5903 5903 5902 5902 5902 5901 5901 5901 5901 5901 5901 5901 5901 5902 5902 5902 5902 5902 5902 5902 5903 5903 5903 5904 5904 5904 5905 5905 5906 5906 5906 5906 5906 5907 5907 5907 5908 5908 5907 5907
5902 5902 5902 5901 5901 5901 5901 5901 5900 5900 5900 5900 5900 5901 5901 5901 5901 5901 5902 5902 5901 5901 5901 5902 5902 5902 5903 5903 5903 5903 5904 5904 5904 5904 5904 5905 5905 5905 5906 5907 5907 5907 5907
5900 5900 5899 5899 5899 5899 5899 5899 5899 5899 5899 5899 5899 5899 5900 5900 5900 5901 5901 5901 5901 5901 5901 5901 5901 5901 5902 5902 5902 5902 5902 5903 5903 5903 5903 5903 5904 5904 5904 5905 5906 5906 5906
5897 5897 5897 5897 5897 5897 5897 5897 5897 5897 5897 5897 5898 5898 5898 5899 5899 5900 5900 5900 5900 5900 5900 5900 5900 5901 5901 5901 5901 5901 5901 5901 5902 5902 5902 5902 5903 5903 5903 5904 5905 5905 5905
5896 5894 5893 5894 5894 5894 5894 5894 5895 5895 5895 5895 5895 5896 5896 5897 5897 5898 5898 5899 5899 5899 5899 5899 5899 5900 5900 5900 5900 5900 5900 5900 5901 5901 5901 5901 5902 5902 5903 5903 5904 5905 5905
5892 5892 5891 5891 5891 5890 5891 5891 5891 5892 5892 5892 5893 5893 5894 5894 5895 5896 5896 5897 5897 5898 5898 5898 5898 5899 5899 5899 5899 5899 5899 5899 5900 5900 5900 5901 5901 5902 5902 5903 5904 5904 5905
5891 5890 5889 5889 5888 5887 5887 5887 5887 5887 5888 5888 5889 5890 5890 5891 5892 5893 5894 5894 5895 5896 5896 5897 5897 5897 5897 5898 5898 5898 5898 5899 5899 5899 5900 5900 5901 5901 5902 5903 5903 5904 5905
5888 5887 5886 5885 5884 5884 5884 5884 5884 5883 5884 5884 5885 5885 5887 5887 5888 5889 5891 5892 5893 5893 5894 5895 5895 5895 5896 5896 5896 5897 5897 5897 5898 5899 5899 5900 5900 5901 5902 5903 5903 5904 5905
5884 5883 5882 5881 5881 5880 5879 5879 5879 5879 5879 5880 5880 5881 5882 5883 5884 5886 5887 5888 5889 5890 5891 5892 5893 5893 5894 5894 5895 5895 5896 5896 5897 5897 5898 5899 5900 5900 5901 5902 5903 5904 5904
5878 5877 5876 5875 5875 5874 5874 5873 5873 5873 5874 5874 5875 5875 5876 5878 5879 5881 5882 5884 5885 5887 5887 5889 5889 5890 5891 5892 5892 5893 5894 5895 5895 5896 5897 5898 5899 5899 5900 5901 5902 5903 5904
5871 5870 5869 5868 5868 5868 5867 5868 5867 5868 5868 5868 5869 5870 5871 5872 5874 5875 5877 5879 5880 5882 5883 5885 5886 5887 5888 5889 5890 5891 5892 5892 5893 5894 5895 5896 5897 5898 5899 5900 5901 5902 5903
5862 5861 5860 5860 5860 5860 5860 5860 5860 5861 5861 5862 5862 5863 5865 5866 5868 5869 5871 5873 5874 5876 5878 5880 5881 5883 5884 5885 5887 5888 5889 5890 5891 5892 5893 5895 5896 5897 5898 5899 5900 5901 5902
5853 5852 5851 5850 5850 5850 5850 5851 5852 5852 5853 5854 5855 5856 5858 5859 5861 5863 5864 5866 5868 5870 5872 5874 5875 5877 5879 5881 5883 5884 5886 5887 5888 5890 5891 5892 5894 5895 5896 5898 5899 5900 5901
5844 5843 5841 5841 5840 5840 5840 5841 5842 5842 5843 5845 5846 5847 5849 5851 5853 5855 5857 5859 5861 5863 5865 5867 5869 5871 5874 5876 5878 5880 5881 5883 5885 5887 5888 5890 5891 5893 5894 5896 5897 5898 5900
5835 5833 5832 5831 5830 5830 5830 5831 5831 5832 5833 5835 5836 5838 5840 5842 5844 5847 5849 5852 5854 5856 5858 5860 5863 5865 5868 5870 5872 5875 5877 5879 5881 5883 5885 5887 5888 5890 5892 5893 5895 5896 5897
5827 5825 5824 5822 5821 5820 5820 5821 5821 5822 5823 5825 5826 5828 5830 5832 5835 5838 5841 5843 5846 5849 5851 5853 5856 5858 5861 5863 5866 5868 5871 5874 5876 5879 5881 5883 5885 5887 5888 5890 5892 5894 5895
5820 5818 5816 5814 5813 5812 5812 5812 5812 5813 5814 5815 5816 5818 5820 5822 5825 5828 5831 5834 5837 5840 5844 5846 5849 5851 5854 5856 5859 5862 5865 5868 5871 5873 5876 5878 5880 5882 5885 5887 5889 5891 5892
5814 5812 5809 5808 5806 5805 5804 5804 5803 5804 5804 5806 5807 5809 5810 5812 5815 5818 5821 5824 5828 5831 5835 5838 5841 5844 5846 5849 5852 5856 5859 5861 5865 5868 5870 5873 5876 5878 5880 5883 5885 5887 5889
5810 5807 5805 5803 5801 5799 5798 5797 5796 5796 5796 5797 5798 5799 5801 5803 5805 5808 5811 5814 5818 5822 5825 5829 5832 5836 5839 5842 5845 5848 5851 5855 5858 5861 5864 5867 5870 5873 5875 5878 5880 5882 5884
5807 5804 5801 5799 5796 5794 5792 5791 5790 5789 5789 5789 5790 5790 5792 5793 5795 5798 5801 5804 5807 5811 5815 5819 5823 5827 5831 5834 5838 5841 5844 5848 5851 5854 5858 5861 5864 5867 5869 5872 5875 5877 5880
5805 5801 5798 5795 5793 5790 5788 5786 5785 5784 5783 5782 5783 5783 5784 5785 5787 5789 5791 5794 5797 5801 5805 5809 5814 5818 5822 5826 5829 5833 5837 5841 5844 5848 5851 5854 5857 5860 5863 5866 5869 5871 5874
5803 5800 5796 5793 5790 5787 5785 5782 5781 5779 5778 5777 5777 5777 5777 5778 5780 5781 5782 5785 5787 5791 5795 5799 5804 5808 5813 5817 5821 5824 5828 5833 5836 5840 5843 5847 5850 5853 5856 5859 5862 5865 5868
5802 5798 5795 5792 5788 5785 5782 5779 5777 5775 5773 5772 5771 5771 5771 5771 5772 5773 5774 5776 5779 5782 5786 5790 5795 5799 5803 5808 5812 5816 5820 5824 5828 5832 5836 5839 5842 5845 5849 5852 5855 5858 5861
Wind_Speed
3 3 3 3 4 5 6 7 8 8 8 7 6 5 5 3 2 1 2 3 4 6 7 7 8 10 11 12 13 13 13 13 13 13 13 12 12 11 10 10 10 9 9
3 3 3 3 3 3 4 4 5 6 6 5 5 5 4 4 3 1 0 2 3 5 6 7 8 9 10 11 12 13 14 13 14 14 14 13 13 12 11 10 10 10 9
3 4 4 4 4 3 3 2 3 3 4 4 3 3 3 3 3 2 1 0 2 3 4 5 6 7 8 9 11 12 13 13 14 14 15 14 13 12 11 10 9 9 9
4 5 6 5 5 4 4 3 2 2 2 2 2 2 2 2 2 2 1 1 1 2 3 4 5 6 7 7 8 9 10 12 12 13 13 13 12 12 11 10 9 8 8
6 7 7 7 7 6 6 5 4 3 3 2 2 2 1 1 1 1 1 2 2 2 2 3 4 4 5 6 7 8 9 9 10 10 10 11 11 11 11 9 8 7 7
8 9 9 8 8 9 8 8 7 7 6 5 5 4 4 3 3 2 2 2 2 2 2 3 3 3 4 5 6 7 7 8 8 8 8 8 8 8 8 8 7 7 5
10 10 9 9 10 10 10 11 11 10 9 8 8 7 6 6 5 5 4 3 3 3 3 3 3 3 4 5 5 6 7 7 7 6 6 6 6 6 6 6 6 5 4
11 12 11 10 10 11 12 12 13 12 12 12 11 10 9 9 8 7 7 6 5 4 4 3 3 3 3 4 5 5 6 6 5 5 5 5 4 4 4 4 4 4 3
13 13 13 12 12 13 14 15 15 15 15 14 14 13 13 12 11 10 9 8 7 7 6 5 4 4 4 4 5 5 5 5 4 4 4 4 3 3 2 3 3 2 2
16 16 16 15 15 14 14 15 16 16 17 17 17 17 16 15 14 13 12 11 10 9 9 7 6 6 5 5 5 5 5 4 4 4 3 3 3 2 2 2 3 2 2
20 20 20 19 19 18 18 18 18 18 18 19 19 19 19 18 18 16 15 14 13 12 11 10 9 8 7 6 6 6 5 4 4 4 3 3 3 3 3 3 3 3 2
25 25 25 24 24 24 24 23 22 21 20 21 21 21 21 20 20 20 19 18 16 15 14 13 12 11 9 9 8 7 6 6 5 5 5 4 4 3 3 4 4 3 3
29 29 30 29 28 28 28 27 26 25 24 23 23 23 23 23 23 22 21 21 20 19 17 16 15 14 12 11 10 9 8 7 7 6 6 5 5 4 4 4 4 4 3
33 33 33 33 33 32 32 31 30 30 28 27 26 25 25 24 24 24 24 23 23 22 21 19 18 17 15 14 13 12 11 9 8 8 7 7 6 6 5 5 5 5 4
36 36 36 36 36 36 36 36 35 34 33 32 31 30 27 26 25 25 25 25 25 25 25 23 21 19 19 17 16 15 14 12 11 10 9 8 8 7 7 6 6 6 5
37 36 37 37 37 37 37 37 38 38 37 36 35 34 32 30 29 27 27 26 26 28 28 27 25 23 21 21 19 18 17 15 13 12 11 10 10 9 9 8 8 7 7
35 35 35 35 35 36 37 37 37 38 38 38 37 36 36 35 33 32 30 28 28 28 28 27 26 25 24 23 23 21 19 18 16 15 14 13 12 11 11 10 9 9 8
32 33 34 34 34 35 35 35 36 36 37 38 38 37 37 37 36 35 34 32 31 29 27 27 28 27 26 26 25 24 22 21 19 18 17 15 14 13 13 12 12 11 10
30 30 31 31 32 32 32 33 33 34 34 35 36 37 38 38 37 37 36 36 34 32 29 27 27 28 27 26 26 26 25 24 22 20 19 18 16 15 15 14 14 13 12
27 26 26 27 27 28 29 29 30 31 32 33 34 35 37 38 38 38 37 38 37 35 32 30 29 28 27 26 27 27 28 27 25 23 22 21 19 18 17 17 16 15 14
23 22 22 22 23 23 24 25 26 27 29 30 32 33 36 37 38 38 38 39 39 38 36 34 31 30 29 28 28 28 28 29 29 27 25 23 22 21 20 19 19 18 17
19 19 18 18 19 20 21 22 23 24 25 27 28 30 33 35 37 38 40 40 40 40 39 37 35 33 32 30 28 28 30 29 29 29 28 27 26 25 23 22 21 20 19
18 17 17 17 17 18 18 19 19 20 21 22 24 25 28 30 33 36 39 40 41 41 41 39 37 36 34 32 31 30 28 29 30 31 30 30 29 28 26 25 24 24 22
18 17 17 16 16 16 16 17 17 18 19 20 21 22 24 26 29 32 35 38 40 41 42 42 40 38 37 35 34 32 31 29 31 31 30 31 32 32 30 28 27 27 25
18 17 17 17 16 16 15 15 15 16 17 18 19 20 22 24 26 28 31 35 38 40 42 42 42 41 39 38 37 35 34 32 32 32 31 31 32 33 33 31 30 29 28
19 18 17 17 17 16 15 15 14 14 14 15 16 17 19 21 23 25 28 31 34 38 40 41 42 43 42 41 39 37 36 35 34 34 34 33 33 33 34 33 32 31 30
Wind_Direction
17 21 24 32 44 56 67 74 78 81 83 85 85 87 89 93 105 130 197 228 237 244 248 251 254 257 259 260 260 261 267 272 275 280 282 285 288 294 303 312 321 327 337
337 340 337 345 360 20 41 58 69 74 78 79 80 80 81 84 81 76 89 236 245 253 256 259 262 261 264 264 263 264 266 269 273 277 278 280 282 287 294 302 313 320 329
303 309 307 309 315 326 346 14 39 52 62 66 70 70 71 75 74 61 51 314 259 264 265 266 266 266 269 270 269 269 269 270 274 275 276 277 278 281 287 295 305 313 321
288 289 288 289 291 297 302 311 326 349 9 23 34 40 42 50 53 42 27 5 313 283 277 275 271 270 272 274 274 273 273 274 275 275 275 275 275 276 280 286 297 307 312
281 276 274 275 278 280 281 283 283 285 288 294 301 306 316 325 342 359 0 347 332 312 294 287 280 274 274 276 277 276 277 278 278 279 277 274 274 276 276 278 287 299 306
283 277 270 268 270 273 275 274 274 272 270 270 271 271 272 276 282 288 300 311 313 314 308 298 289 280 276 277 278 279 280 282 283 282 282 276 273 273 274 272 275 288 296
277 270 265 264 265 268 271 273 271 267 265 265 265 264 264 264 266 269 271 276 282 290 296 295 291 282 274 271 275 278 281 283 287 286 285 279 272 268 269 263 267 276 282
281 274 270 268 268 267 266 267 269 269 265 262 260 260 260 260 261 262 261 263 268 271 275 278 283 286 279 273 273 277 281 283 285 289 285 274 269 267 263 253 255 258 260
283 283 279 276 271 270 269 269 266 265 264 261 259 259 257 257 258 259 258 258 260 263 265 266 266 269 275 274 272 273 278 280 280 280 276 265 266 264 255 240 229 221 220
290 289 289 285 280 276 276 275 270 265 262 262 260 257 254 253 254 256 256 256 257 258 260 260 260 260 262 263 267 271 274 274 269 265 258 251 257 251 229 206 195 194 186
284 287 286 285 284 281 279 276 276 271 264 263 263 259 254 252 251 252 253 254 255 256 256 257 257 256 256 257 260 264 265 264 257 252 248 242 241 235 219 199 193 192 192
278 279 279 278 279 278 278 276 275 270 268 267 265 261 256 256 254 251 252 253 253 254 254 254 255 254 253 252 253 256 258 257 252 249 246 237 234 227 222 212 210 211 210
271 270 271 271 271 271 272 272 270 267 267 268 266 263 258 256 254 253 253 254 253 252 252 252 253 251 249 250 250 251 252 251 246 243 241 235 232 228 226 221 221 219 216
273 271 268 267 266 266 266 267 267 267 266 267 266 264 262 261 254 254 255 253 252 251 251 251 250 250 247 247 248 248 249 246 241 237 235 233 231 230 231 228 222 221 219
277 274 272 270 268 266 264 263 263 263 262 263 263 262 260 260 258 255 253 254 250 249 250 250 247 247 246 245 246 247 247 245 239 236 234 232 231 230 232 231 223 221 222
280 277 274 272 270 267 265 264 262 261 262 260 259 259 257 257 258 258 256 256 253 251 250 250 247 246 246 244 243 243 245 244 239 237 236 232 231 231 232 233 229 226 224
283 281 278 276 274 270 268 266 263 261 259 259 258 257 256 254 254 255 255 255 254 252 250 249 247 245 244 243 241 242 242 242 240 237 236 233 231 232 231 232 232 230 228
288 285 282 280 277 274 271 268 265 262 259 257 256 255 254 253 251 251 251 252 252 252 254 251 246 246 244 242 240 240 240 239 240 238 237 235 233 233 233 233 233 232 230
292 289 286 283 281 277 274 271 268 264 260 257 254 253 252 251 250 249 249 248 249 249 250 249 248 246 244 241 238 237 237 237 238 238 238 236 234 234 234 234 233 233 233
298 294 290 287 285 282 277 274 271 266 262 257 255 252 251 250 248 248 247 245 245 245 246 245 245 245 243 241 239 237 237 236 236 238 238 236 235 235 235 235 235 235 235
308 301 295 291 289 286 282 278 275 270 265 260 256 253 251 249 247 246 245 244 242 241 242 241 240 242 242 241 240 238 238 237 236 237 237 237 235 236 236 236 236 236 238
320 315 309 302 297 293 289 284 279 274 269 265 260 256 252 249 247 245 244 243 242 240 239 237 237 238 239 239 239 239 239 239 238 237 237 238 236 235 236 237 237 238 239
330 327 322 315 308 303 297 292 286 279 273 267 263 259 254 250 247 246 244 242 241 238 237 235 234 235 235 237 239 240 238 238 237 237 238 238 236 235 236 237 237 238 240
339 334 330 326 320 314 308 300 293 286 279 273 268 262 256 252 250 248 245 242 240 239 236 235 233 233 233 235 236 238 236 236 236 237 238 238 237 237 238 239 239 238 240
347 344 341 337 332 327 322 314 305 295 284 279 273 267 261 255 252 251 248 243 240 238 236 235 233 232 232 232 234 236 237 237 236 234 235 236 237 238 238 238 239 239 241
354 352 350 349 345 339 332 324 317 310 298 289 281 273 267 261 256 253 249 245 241 239 236 234 233 232 232 231 232 234 235 235 236 234 234 236 237 237 236 237 238 240 241